Time,TemperatureF,DewpointF,PressureIn,WindDirection,WindDirectionDegrees,WindSpeedMPH,WindSpeedGustMPH,Humidity,HourlyPrecipIn,Conditions,Clouds,dailyrainin,SoftwareType,DateUTC
2013-03-09 00:02:00,34.0,30.0,30.29,SE,130,5.0,8.0,84,0.00,,,0.01,,2013-03-09 06:02:00,
2013-03-09 00:11:00,34.0,30.0,30.28,SE,124,7.0,10.0,84,0.00,,,0.01,,2013-03-09 06:11:00,
2013-03-09 00:22:00,34.0,30.0,30.28,SE,124,7.0,10.0,84,0.00,,,0.01,,2013-03-09 06:22:00,
2013-03-09 00:32:00,33.0,29.0,30.25,ESE,121,7.0,11.0,85,0.00,,,0.01,,2013-03-09 06:32:00,
2013-03-09 00:42:00,33.0,29.0,30.25,ESE,121,7.0,11.0,85,0.00,,,0.01,,2013-03-09 06:42:00,
2013-03-09 00:51:00,33.0,29.0,30.25,SE,126,6.0,11.0,85,0.00,,,0.01,,2013-03-09 06:51:00,
2013-03-09 01:01:00,33.0,29.0,30.26,SE,138,5.0,11.0,85,0.00,,,0.01,,2013-03-09 07:01:00,
2013-03-09 01:11:00,33.0,29.0,30.26,SE,138,5.0,11.0,85,0.00,,,0.01,,2013-03-09 07:11:00,
2013-03-09 01:21:00,34.0,30.0,30.26,SE,132,4.0,11.0,84,0.00,,,0.01,,2013-03-09 07:21:00,
2013-03-09 01:32:00,34.0,30.0,30.26,SE,143,4.0,7.0,84,0.00,,,0.01,,2013-03-09 07:32:00,
2013-03-09 01:41:00,34.0,30.0,30.26,SE,143,4.0,7.0,84,0.00,,,0.01,,2013-03-09 07:41:00,
2013-03-09 01:51:00,34.0,30.0,30.26,SE,146,6.0,12.0,84,0.00,,,0.01,,2013-03-09 07:51:00,
2013-03-09 02:01:00,34.0,30.0,30.25,SE,138,3.0,7.0,85,0.00,,,0.01,,2013-03-09 08:01:00,
2013-03-09 02:11:00,34.0,30.0,30.25,SE,138,3.0,7.0,85,0.00,,,0.01,,2013-03-09 08:11:00,
2013-03-09 02:22:00,34.0,30.0,30.24,SE,136,4.0,8.0,85,0.00,,,0.01,,2013-03-09 08:22:00,
2013-03-09 02:32:00,34.0,30.0,30.22,ESE,112,9.0,14.0,85,0.00,,,0.01,,2013-03-09 08:32:00,
2013-03-09 02:41:00,34.0,30.0,30.22,ESE,112,9.0,14.0,85,0.00,,,0.01,,2013-03-09 08:41:00,
2013-03-09 02:52:00,34.0,30.0,30.23,SE,142,6.0,12.0,85,0.00,,,0.01,,2013-03-09 08:52:00,
2013-03-09 03:01:00,34.0,30.0,30.21,ESE,121,9.0,16.0,86,0.00,,,0.01,,2013-03-09 09:01:00,
2013-03-09 03:12:00,34.0,30.0,30.21,ESE,121,9.0,16.0,86,0.00,,,0.01,,2013-03-09 09:12:00,
2013-03-09 03:21:00,34.0,30.0,30.21,SE,140,7.0,13.0,86,0.00,,,0.01,,2013-03-09 09:21:00,
2013-03-09 03:32:00,34.0,30.0,30.22,SE,126,4.0,10.0,85,0.00,,,0.01,,2013-03-09 09:32:00,
2013-03-09 03:42:00,34.0,30.0,30.22,SE,126,4.0,10.0,85,0.00,,,0.01,,2013-03-09 09:42:00,
2013-03-09 03:52:00,34.0,30.0,30.20,SE,126,8.0,12.0,84,0.00,,,0.01,,2013-03-09 09:52:00,
2013-03-09 04:01:00,35.0,30.0,30.20,SSE,151,7.0,14.0,83,0.00,,,0.01,,2013-03-09 10:01:00,
2013-03-09 04:11:00,35.0,30.0,30.20,SSE,151,7.0,14.0,83,0.00,,,0.01,,2013-03-09 10:11:00,
2013-03-09 04:21:00,34.0,30.0,30.21,South,170,7.0,13.0,84,0.00,,,0.01,,2013-03-09 10:21:00,
2013-03-09 04:31:00,34.0,30.0,30.21,SE,134,6.0,10.0,85,0.00,,,0.01,,2013-03-09 10:31:00,
2013-03-09 04:41:00,34.0,30.0,30.21,SE,134,6.0,10.0,85,0.00,,,0.01,,2013-03-09 10:41:00,
2013-03-09 04:52:00,34.0,30.0,30.19,SE,136,7.0,11.0,84,0.00,,,0.01,,2013-03-09 10:52:00,
2013-03-09 05:01:00,34.0,30.0,30.20,SE,140,3.0,8.0,85,0.00,,,0.01,,2013-03-09 11:01:00,
2013-03-09 05:11:00,34.0,30.0,30.20,SE,140,3.0,8.0,85,0.00,,,0.01,,2013-03-09 11:11:00,
2013-03-09 05:21:00,35.0,31.0,30.20,SE,131,6.0,12.0,84,0.00,,,0.01,,2013-03-09 11:21:00,
2013-03-09 05:32:00,35.0,30.0,30.20,SE,130,6.0,11.0,83,0.00,,,0.01,,2013-03-09 11:32:00,
2013-03-09 05:42:00,35.0,30.0,30.20,SE,130,6.0,11.0,83,0.00,,,0.01,,2013-03-09 11:42:00,
2013-03-09 05:52:00,34.0,30.0,30.19,ESE,118,7.0,10.0,84,0.00,,,0.01,,2013-03-09 11:52:00,
2013-03-09 06:01:00,34.0,30.0,30.20,SSE,154,4.0,13.0,85,0.00,,,0.01,,2013-03-09 12:01:00,
2013-03-09 06:11:00,34.0,30.0,30.20,SSE,154,4.0,13.0,85,0.00,,,0.01,,2013-03-09 12:11:00,
2013-03-09 06:21:00,34.0,30.0,30.20,South,176,3.0,6.0,85,0.00,,,0.01,,2013-03-09 12:21:00,
2013-03-09 06:32:00,35.0,30.0,30.19,ESE,113,4.0,6.0,83,0.00,,,0.01,,2013-03-09 12:32:00,
2013-03-09 06:42:00,35.0,30.0,30.19,ESE,113,4.0,6.0,83,0.00,,,0.01,,2013-03-09 12:42:00,
2013-03-09 06:52:00,35.0,30.0,30.19,SE,134,5.0,9.0,83,0.00,,,0.01,,2013-03-09 12:52:00,
2013-03-09 07:02:00,35.0,30.0,30.18,SE,142,6.0,11.0,83,0.00,,,0.01,,2013-03-09 13:02:00,
2013-03-09 07:11:00,35.0,30.0,30.18,SE,142,6.0,11.0,83,0.00,,,0.01,,2013-03-09 13:11:00,
2013-03-09 07:21:00,35.0,30.0,30.19,SSE,153,4.0,10.0,83,0.00,,,0.01,,2013-03-09 13:21:00,
2013-03-09 07:32:00,35.0,30.0,30.19,SSE,161,4.0,9.0,83,0.00,,,0.01,,2013-03-09 13:32:00,
2013-03-09 07:42:00,35.0,30.0,30.19,SSE,161,4.0,9.0,83,0.00,,,0.01,,2013-03-09 13:42:00,
2013-03-09 07:52:00,35.0,30.0,30.18,SE,124,9.0,15.0,83,0.00,,,0.01,,2013-03-09 13:52:00,
2013-03-09 08:01:00,35.0,30.0,30.18,SSE,147,5.0,13.0,83,0.00,,,0.01,,2013-03-09 14:01:00,
2013-03-09 08:11:00,35.0,30.0,30.18,SSE,147,5.0,13.0,83,0.00,,,0.01,,2013-03-09 14:11:00,
2013-03-09 08:21:00,35.0,30.0,30.18,ESE,119,5.0,9.0,82,0.00,,,0.01,,2013-03-09 14:21:00,
2013-03-09 08:32:00,35.0,30.0,30.17,SSE,150,6.0,11.0,82,0.00,,,0.00,,2013-03-09 14:32:00,
2013-03-09 08:42:00,35.0,30.0,30.17,SSE,150,6.0,11.0,82,0.00,,,0.00,,2013-03-09 14:42:00,
2013-03-09 08:52:00,36.0,31.0,30.17,SSE,162,6.0,13.0,81,0.00,,,0.00,,2013-03-09 14:52:00,
2013-03-09 09:02:00,36.0,31.0,30.16,SSE,167,7.0,16.0,82,0.00,,,0.00,,2013-03-09 15:02:00,
2013-03-09 09:11:00,36.0,31.0,30.16,SSE,167,7.0,16.0,82,0.00,,,0.00,,2013-03-09 15:11:00,
2013-03-09 09:22:00,36.0,31.0,30.15,SSE,153,6.0,13.0,83,0.00,,,0.00,,2013-03-09 15:22:00,
2013-03-09 09:32:00,36.0,31.0,30.14,ESE,119,7.0,14.0,83,0.00,,,0.00,,2013-03-09 15:32:00,
2013-03-09 09:42:00,36.0,31.0,30.14,ESE,119,7.0,14.0,83,0.00,,,0.00,,2013-03-09 15:42:00,
2013-03-09 09:52:00,36.0,32.0,30.13,SE,146,6.0,13.0,84,0.01,,,0.01,,2013-03-09 15:52:00,
2013-03-09 10:01:00,36.0,31.0,30.13,SSE,155,6.0,13.0,83,0.01,,,0.01,,2013-03-09 16:01:00,
2013-03-09 10:11:00,36.0,31.0,30.13,SSE,155,6.0,13.0,83,0.01,,,0.01,,2013-03-09 16:11:00,
2013-03-09 10:21:00,37.0,32.0,30.13,SE,139,8.0,13.0,83,0.01,,,0.01,,2013-03-09 16:21:00,
2013-03-09 10:32:00,37.0,32.0,30.12,South,173,5.0,11.0,82,0.01,,,0.01,,2013-03-09 16:32:00,
2013-03-09 10:42:00,37.0,32.0,30.12,South,173,5.0,11.0,82,0.01,,,0.01,,2013-03-09 16:42:00,
2013-03-09 10:51:00,37.0,32.0,30.12,South,180,5.0,10.0,83,0.00,,,0.01,,2013-03-09 16:51:00,
2013-03-09 11:01:00,38.0,33.0,30.11,SSW,194,5.0,11.0,83,0.00,,,0.01,,2013-03-09 17:01:00,
2013-03-09 11:11:00,38.0,33.0,30.11,SSW,194,5.0,11.0,83,0.00,,,0.01,,2013-03-09 17:11:00,
2013-03-09 11:22:00,38.0,33.0,30.10,SE,140,6.0,11.0,82,0.00,,,0.01,,2013-03-09 17:22:00,
2013-03-09 11:32:00,38.0,33.0,30.09,SSW,200,6.0,12.0,83,0.00,,,0.01,,2013-03-09 17:32:00,
2013-03-09 11:42:00,38.0,33.0,30.09,SSW,200,6.0,12.0,83,0.00,,,0.01,,2013-03-09 17:42:00,
2013-03-09 11:52:00,39.0,34.0,30.07,ESE,117,7.0,13.0,83,0.00,,,0.01,,2013-03-09 17:52:00,
2013-03-09 12:01:00,40.0,35.0,30.07,SSW,211,6.0,14.0,81,0.00,,,0.01,,2013-03-09 18:01:00,
2013-03-09 12:11:00,40.0,35.0,30.07,SSW,211,6.0,14.0,81,0.00,,,0.01,,2013-03-09 18:11:00,
2013-03-09 12:21:00,41.0,35.0,30.06,SE,135,6.0,17.0,79,0.00,,,0.01,,2013-03-09 18:21:00,
2013-03-09 12:32:00,42.0,36.0,30.05,SSE,160,5.0,10.0,78,0.00,,,0.01,,2013-03-09 18:32:00,
2013-03-09 12:42:00,42.0,36.0,30.05,SSE,160,5.0,10.0,78,0.00,,,0.01,,2013-03-09 18:42:00,
2013-03-09 12:52:00,42.0,35.0,30.05,South,174,4.0,12.0,77,0.00,,,0.01,,2013-03-09 18:52:00,
2013-03-09 13:01:00,42.0,36.0,30.04,SSE,152,4.0,11.0,78,0.00,,,0.01,,2013-03-09 19:01:00,
2013-03-09 13:11:00,42.0,36.0,30.04,SSE,152,4.0,11.0,78,0.00,,,0.01,,2013-03-09 19:11:00,
2013-03-09 13:22:00,42.0,36.0,30.02,SSE,154,5.0,12.0,79,0.00,,,0.01,,2013-03-09 19:22:00,
2013-03-09 13:32:00,42.0,36.0,30.01,SSE,149,6.0,15.0,78,0.00,,,0.01,,2013-03-09 19:32:00,
2013-03-09 13:42:00,42.0,36.0,30.01,SSE,149,6.0,15.0,78,0.00,,,0.01,,2013-03-09 19:42:00,
2013-03-09 13:51:00,42.0,36.0,30.00,South,173,5.0,11.0,78,0.00,,,0.01,,2013-03-09 19:51:00,
2013-03-09 14:01:00,42.0,36.0,30.00,South,190,5.0,10.0,80,0.00,,,0.01,,2013-03-09 20:01:00,
2013-03-09 14:11:00,42.0,36.0,30.00,South,190,5.0,10.0,80,0.00,,,0.01,,2013-03-09 20:11:00,
2013-03-09 14:21:00,41.0,36.0,29.98,SSE,152,5.0,12.0,82,0.00,,,0.01,,2013-03-09 20:21:00,
2013-03-09 14:32:00,42.0,37.0,29.97,SE,142,7.0,14.0,81,0.00,,,0.01,,2013-03-09 20:32:00,
2013-03-09 14:42:00,42.0,37.0,29.97,SE,142,7.0,14.0,81,0.00,,,0.01,,2013-03-09 20:42:00,
2013-03-09 14:52:00,42.0,37.0,29.96,SE,132,6.0,12.0,81,0.00,,,0.01,,2013-03-09 20:52:00,
2013-03-09 15:02:00,43.0,38.0,29.96,South,180,5.0,11.0,81,0.00,,,0.01,,2013-03-09 21:02:00,
2013-03-09 15:12:00,43.0,38.0,29.96,South,180,5.0,11.0,81,0.00,,,0.01,,2013-03-09 21:12:00,
2013-03-09 15:21:00,44.0,39.0,29.95,SSE,147,5.0,11.0,81,0.00,,,0.01,,2013-03-09 21:21:00,
2013-03-09 15:32:00,44.0,39.0,29.94,SE,146,6.0,10.0,81,0.00,,,0.01,,2013-03-09 21:32:00,
2013-03-09 15:42:00,44.0,39.0,29.94,SE,146,6.0,10.0,81,0.00,,,0.01,,2013-03-09 21:42:00,
2013-03-09 15:52:00,44.0,39.0,29.93,SE,136,8.0,12.0,81,0.00,,,0.01,,2013-03-09 21:52:00,
2013-03-09 16:01:00,44.0,39.0,29.92,ESE,120,5.0,13.0,81,0.00,,,0.01,,2013-03-09 22:01:00,
2013-03-09 16:11:00,44.0,39.0,29.92,ESE,120,5.0,13.0,81,0.00,,,0.01,,2013-03-09 22:11:00,
2013-03-09 16:21:00,44.0,39.0,29.92,ESE,120,5.0,13.0,81,0.00,,,0.01,,2013-03-09 22:21:00,
2013-03-09 16:32:00,44.0,39.0,29.90,ESE,113,6.0,10.0,82,0.00,,,0.01,,2013-03-09 22:32:00,
2013-03-09 16:42:00,44.0,39.0,29.90,ESE,113,6.0,10.0,82,0.00,,,0.01,,2013-03-09 22:42:00,
2013-03-09 16:52:00,44.0,39.0,29.88,SE,134,9.0,14.0,81,0.00,,,0.01,,2013-03-09 22:52:00,
2013-03-09 17:01:00,45.0,39.0,29.88,SE,134,8.0,13.0,80,0.00,,,0.01,,2013-03-09 23:01:00,
2013-03-09 17:11:00,45.0,39.0,29.88,SE,134,8.0,13.0,80,0.00,,,0.01,,2013-03-09 23:11:00,
2013-03-09 17:21:00,45.0,39.0,29.88,SE,142,8.0,16.0,80,0.00,,,0.01,,2013-03-09 23:21:00,
2013-03-09 17:32:00,45.0,40.0,29.88,SSE,155,7.0,14.0,81,0.00,,,0.01,,2013-03-09 23:32:00,
2013-03-09 17:41:00,45.0,40.0,29.88,SSE,155,7.0,14.0,81,0.00,,,0.01,,2013-03-09 23:41:00,
2013-03-09 17:52:00,46.0,40.0,29.88,SSE,155,6.0,15.0,79,0.00,,,0.01,,2013-03-09 23:52:00,
2013-03-09 18:01:00,46.0,40.0,29.88,SE,139,7.0,15.0,78,0.00,,,0.01,,2013-03-10 00:01:00,
2013-03-09 18:11:00,46.0,40.0,29.88,SE,139,7.0,15.0,78,0.00,,,0.01,,2013-03-10 00:11:00,
2013-03-09 18:22:00,46.0,39.0,29.88,SSE,151,7.0,13.0,77,0.00,,,0.01,,2013-03-10 00:22:00,
2013-03-09 18:32:00,45.0,39.0,29.88,South,171,6.0,15.0,79,0.00,,,0.01,,2013-03-10 00:32:00,
2013-03-09 18:42:00,45.0,39.0,29.88,South,171,6.0,15.0,79,0.00,,,0.01,,2013-03-10 00:42:00,
2013-03-09 18:52:00,46.0,40.0,29.88,SSE,167,6.0,12.0,79,0.00,,,0.01,,2013-03-10 00:52:00,
2013-03-09 19:01:00,45.0,39.0,29.87,SE,144,7.0,12.0,80,0.00,,,0.01,,2013-03-10 01:01:00,
2013-03-09 19:11:00,45.0,39.0,29.87,SE,144,7.0,12.0,80,0.00,,,0.01,,2013-03-10 01:11:00,
2013-03-09 19:21:00,45.0,39.0,29.87,SE,136,7.0,12.0,78,0.00,,,0.01,,2013-03-10 01:21:00,
2013-03-09 19:32:00,46.0,39.0,29.86,SE,138,7.0,13.0,76,0.00,,,0.01,,2013-03-10 01:32:00,
2013-03-09 19:41:00,46.0,39.0,29.86,SE,138,7.0,13.0,76,0.00,,,0.01,,2013-03-10 01:41:00,
2013-03-09 19:52:00,46.0,38.0,29.86,SSE,167,6.0,12.0,74,0.00,,,0.01,,2013-03-10 01:52:00,
2013-03-09 20:01:00,46.0,37.0,29.86,SE,141,7.0,15.0,72,0.00,,,0.01,,2013-03-10 02:01:00,
2013-03-09 20:11:00,46.0,37.0,29.86,SE,141,7.0,15.0,72,0.00,,,0.01,,2013-03-10 02:11:00,
2013-03-09 20:22:00,46.0,37.0,29.85,SSE,165,6.0,14.0,72,0.00,,,0.01,,2013-03-10 02:22:00,
2013-03-09 20:32:00,46.0,37.0,29.85,SE,146,6.0,14.0,72,0.00,,,0.01,,2013-03-10 02:32:00,
2013-03-09 20:42:00,46.0,37.0,29.85,SE,146,6.0,14.0,72,0.00,,,0.01,,2013-03-10 02:42:00,
2013-03-09 20:52:00,46.0,38.0,29.85,SSW,196,7.0,13.0,73,0.00,,,0.01,,2013-03-10 02:52:00,
2013-03-09 21:02:00,46.0,38.0,29.84,South,171,7.0,13.0,74,0.00,,,0.01,,2013-03-10 03:02:00,
2013-03-09 21:11:00,46.0,38.0,29.84,South,171,7.0,13.0,74,0.00,,,0.01,,2013-03-10 03:11:00,
2013-03-09 21:22:00,46.0,38.0,29.84,SSE,165,7.0,13.0,74,0.00,,,0.01,,2013-03-10 03:22:00,
2013-03-09 21:32:00,47.0,39.0,29.84,SSE,166,7.0,17.0,73,0.00,,,0.01,,2013-03-10 03:32:00,
2013-03-09 21:42:00,47.0,39.0,29.84,SSE,166,7.0,17.0,73,0.00,,,0.01,,2013-03-10 03:42:00,
2013-03-09 21:52:00,47.0,38.0,29.83,South,189,9.0,20.0,71,0.00,,,0.01,,2013-03-10 03:52:00,
2013-03-09 22:01:00,47.0,38.0,29.83,South,182,8.0,17.0,70,0.00,,,0.01,,2013-03-10 04:01:00,
2013-03-09 22:11:00,47.0,38.0,29.83,South,182,8.0,17.0,70,0.00,,,0.01,,2013-03-10 04:11:00,
2013-03-09 22:21:00,48.0,38.0,29.83,SSW,193,7.0,15.0,68,0.00,,,0.01,,2013-03-10 04:21:00,
2013-03-09 22:32:00,48.0,38.0,29.83,SSE,154,7.0,14.0,68,0.00,,,0.01,,2013-03-10 04:32:00,
2013-03-09 22:42:00,48.0,38.0,29.83,SSE,154,7.0,14.0,68,0.00,,,0.01,,2013-03-10 04:42:00,
2013-03-09 22:52:00,48.0,38.0,29.83,South,191,7.0,15.0,68,0.00,,,0.01,,2013-03-10 04:52:00,
2013-03-09 23:01:00,48.0,38.0,29.83,South,190,8.0,15.0,68,0.00,,,0.01,,2013-03-10 05:01:00,
2013-03-09 23:11:00,48.0,38.0,29.83,South,190,8.0,15.0,68,0.00,,,0.01,,2013-03-10 05:11:00,
2013-03-09 23:22:00,47.0,38.0,29.83,South,173,6.0,12.0,71,0.01,,,0.02,,2013-03-10 05:22:00,
2013-03-09 23:31:00,47.0,39.0,29.82,South,170,5.0,13.0,73,0.03,,,0.04,,2013-03-10 05:31:00,
2013-03-09 23:42:00,47.0,40.0,29.81,SSE,153,5.0,10.0,76,0.04,,,0.05,,2013-03-10 05:42:00,
2013-03-09 23:52:00,47.0,40.0,29.81,SSE,153,5.0,10.0,76,0.04,,,0.05,,2013-03-10 05:52:00,